Year,Month,Day,Hour,Minute,Value (Times are PST for temperature in C)
2017,07,16,00,00,16.70
2017,07,16,00,01,16.70
2017,07,16,00,02,16.70
2017,07,16,00,03,16.70
2017,07,16,00,04,16.70
2017,07,16,00,05,16.70
2017,07,16,00,06,16.70
2017,07,16,00,07,16.70
2017,07,16,00,08,16.70
2017,07,16,00,09,16.60
2017,07,16,00,10,16.60
2017,07,16,00,11,16.60
2017,07,16,00,12,16.60
2017,07,16,00,13,16.60
2017,07,16,00,14,16.60
2017,07,16,00,15,16.60
2017,07,16,00,16,16.60
2017,07,16,00,17,16.60
2017,07,16,00,18,16.60
2017,07,16,00,19,16.60
2017,07,16,00,20,16.60
2017,07,16,00,21,16.60
2017,07,16,00,22,16.60
2017,07,16,00,23,16.60
2017,07,16,00,24,16.60
2017,07,16,00,25,16.60
2017,07,16,00,26,16.60
2017,07,16,00,27,16.60
2017,07,16,00,28,16.60
2017,07,16,00,29,16.60
2017,07,16,00,30,16.60
2017,07,16,00,31,16.60
2017,07,16,00,32,16.50
2017,07,16,00,33,16.50
2017,07,16,00,34,16.50
2017,07,16,00,35,16.50
2017,07,16,00,36,16.50
2017,07,16,00,37,16.40
2017,07,16,00,38,16.40
2017,07,16,00,39,16.40
2017,07,16,00,40,16.40
2017,07,16,00,41,16.40
2017,07,16,00,42,16.40
2017,07,16,00,43,16.30
2017,07,16,00,44,16.30
2017,07,16,00,45,16.30
2017,07,16,00,46,16.30
2017,07,16,00,47,16.30
2017,07,16,00,48,16.30
2017,07,16,00,49,16.30
2017,07,16,00,50,16.20
2017,07,16,00,51,16.20
2017,07,16,00,52,16.20
2017,07,16,00,53,16.20
2017,07,16,00,54,16.20
2017,07,16,00,55,16.20
2017,07,16,00,56,16.20
2017,07,16,00,57,16.20
2017,07,16,00,58,16.20
2017,07,16,00,59,16.20
2017,07,16,01,00,16.20
2017,07,16,01,01,16.10
2017,07,16,01,02,16.10
2017,07,16,01,03,16.10
2017,07,16,01,04,16.10
2017,07,16,01,05,16.10
2017,07,16,01,06,16.10
2017,07,16,01,07,16.10
2017,07,16,01,08,16.00
2017,07,16,01,09,16.00
2017,07,16,01,10,16.00
2017,07,16,01,11,16.00
2017,07,16,01,12,15.90
2017,07,16,01,13,15.90
2017,07,16,01,14,15.90
2017,07,16,01,15,15.90
2017,07,16,01,16,15.90
2017,07,16,01,17,15.90
2017,07,16,01,18,15.90
2017,07,16,01,19,15.90
2017,07,16,01,20,15.90
2017,07,16,01,21,15.80
2017,07,16,01,22,15.80
2017,07,16,01,23,15.80
2017,07,16,01,24,15.80
2017,07,16,01,25,15.80
2017,07,16,01,26,15.80
2017,07,16,01,27,15.80
2017,07,16,01,28,15.80
2017,07,16,01,29,15.70
2017,07,16,01,30,15.70
2017,07,16,01,31,15.70
2017,07,16,01,32,15.70
2017,07,16,01,33,15.70
2017,07,16,01,34,15.70
2017,07,16,01,35,15.70
2017,07,16,01,36,15.70
2017,07,16,01,37,15.70
2017,07,16,01,38,15.70
2017,07,16,01,39,15.70
2017,07,16,01,40,15.70
2017,07,16,01,41,15.70
2017,07,16,01,42,15.70
2017,07,16,01,43,15.80
2017,07,16,01,44,15.80
2017,07,16,01,45,15.80
2017,07,16,01,46,15.80
2017,07,16,01,47,15.90
2017,07,16,01,48,15.90
2017,07,16,01,49,15.90
2017,07,16,01,50,15.90
2017,07,16,01,51,15.90
2017,07,16,01,52,15.90
2017,07,16,01,53,15.90
2017,07,16,01,54,15.90
2017,07,16,01,55,15.90
2017,07,16,01,56,15.90
2017,07,16,01,57,16.00
2017,07,16,01,58,15.90
2017,07,16,01,59,16.00
2017,07,16,02,00,16.00
2017,07,16,02,01,16.00
2017,07,16,02,02,16.00
2017,07,16,02,03,16.00
2017,07,16,02,04,16.00
2017,07,16,02,05,16.00
2017,07,16,02,06,16.10
2017,07,16,02,07,16.10
2017,07,16,02,08,16.10
2017,07,16,02,09,16.10
2017,07,16,02,10,16.10
2017,07,16,02,11,16.10
2017,07,16,02,12,16.10
2017,07,16,02,13,16.10
2017,07,16,02,14,16.10
2017,07,16,02,15,16.10
2017,07,16,02,16,16.20
2017,07,16,02,17,16.20
2017,07,16,02,18,16.20
2017,07,16,02,19,16.20
2017,07,16,02,20,16.20
2017,07,16,02,21,16.20
2017,07,16,02,22,16.20
2017,07,16,02,23,16.20
2017,07,16,02,24,16.20
2017,07,16,02,25,16.20
2017,07,16,02,26,16.20
2017,07,16,02,27,16.20
2017,07,16,02,28,16.30
2017,07,16,02,29,16.30
2017,07,16,02,30,16.30
2017,07,16,02,31,16.20
2017,07,16,02,32,16.20
2017,07,16,02,33,16.30
2017,07,16,02,34,16.30
2017,07,16,02,35,16.30
2017,07,16,02,36,16.30
2017,07,16,02,37,16.30
2017,07,16,02,38,16.30
2017,07,16,02,39,16.30
2017,07,16,02,40,16.30
2017,07,16,02,41,16.30
2017,07,16,02,42,16.30
2017,07,16,02,43,16.30
2017,07,16,02,44,16.30
2017,07,16,02,45,16.30
2017,07,16,02,46,16.30
2017,07,16,02,47,16.30
2017,07,16,02,48,16.30
2017,07,16,02,49,16.30
2017,07,16,02,50,16.30
2017,07,16,02,51,16.30
2017,07,16,02,52,16.30
2017,07,16,02,53,16.30
2017,07,16,02,54,16.30
2017,07,16,02,55,16.30
2017,07,16,02,56,16.30
2017,07,16,02,57,16.30
2017,07,16,02,58,16.30
2017,07,16,02,59,16.30
2017,07,16,03,00,16.30
2017,07,16,03,01,16.30
2017,07,16,03,02,16.30
2017,07,16,03,03,16.30
2017,07,16,03,04,16.30
2017,07,16,03,05,16.30
2017,07,16,03,06,16.30
2017,07,16,03,07,16.30
2017,07,16,03,08,16.30
2017,07,16,03,09,16.30
2017,07,16,03,10,16.30
2017,07,16,03,11,16.30
2017,07,16,03,12,16.30
2017,07,16,03,13,16.30
2017,07,16,03,14,16.30
2017,07,16,03,15,16.30
2017,07,16,03,16,16.30
2017,07,16,03,17,16.20
2017,07,16,03,18,16.30
2017,07,16,03,19,16.30
2017,07,16,03,20,16.30
2017,07,16,03,21,16.20
2017,07,16,03,22,16.30
2017,07,16,03,23,16.20
2017,07,16,03,24,16.20
2017,07,16,03,25,16.20
2017,07,16,03,26,16.20
2017,07,16,03,27,16.20
2017,07,16,03,28,16.20
2017,07,16,03,29,16.20
2017,07,16,03,30,16.20
2017,07,16,03,31,16.10
2017,07,16,03,32,16.10
2017,07,16,03,33,16.10
2017,07,16,03,34,16.10
2017,07,16,03,35,16.10
2017,07,16,03,36,16.10
2017,07,16,03,37,16.10
2017,07,16,03,38,16.10
2017,07,16,03,39,16.20
2017,07,16,03,40,16.20
2017,07,16,03,41,16.20
2017,07,16,03,42,16.30
2017,07,16,03,43,16.30
2017,07,16,03,44,16.30
2017,07,16,03,45,16.20
2017,07,16,03,46,16.20
2017,07,16,03,47,16.20
2017,07,16,03,48,16.20
2017,07,16,03,49,16.20
2017,07,16,03,50,16.20
2017,07,16,03,51,16.20
2017,07,16,03,52,16.20
2017,07,16,03,53,16.20
2017,07,16,03,54,16.10
2017,07,16,03,55,16.10
2017,07,16,03,56,16.10
2017,07,16,03,57,16.10
2017,07,16,03,58,16.10
2017,07,16,03,59,16.10
2017,07,16,04,00,16.10
2017,07,16,04,01,16.00
2017,07,16,04,02,16.00
2017,07,16,04,03,16.00
2017,07,16,04,04,16.00
2017,07,16,04,05,15.90
2017,07,16,04,06,15.90
2017,07,16,04,07,15.90
2017,07,16,04,08,15.90
2017,07,16,04,09,15.80
2017,07,16,04,10,15.80
2017,07,16,04,11,15.80
2017,07,16,04,12,15.80
2017,07,16,04,13,15.80
2017,07,16,04,14,15.80
2017,07,16,04,15,15.70
2017,07,16,04,16,15.70
2017,07,16,04,17,15.70
2017,07,16,04,18,15.70
2017,07,16,04,19,15.60
2017,07,16,04,20,15.60
2017,07,16,04,21,15.60
2017,07,16,04,22,15.60
2017,07,16,04,23,15.60
2017,07,16,04,24,15.60
2017,07,16,04,25,15.60
2017,07,16,04,26,15.60
2017,07,16,04,27,15.70
2017,07,16,04,28,15.70
2017,07,16,04,29,15.70
2017,07,16,04,30,15.70
2017,07,16,04,31,15.70
2017,07,16,04,32,15.60
2017,07,16,04,33,15.60
2017,07,16,04,34,15.60
2017,07,16,04,35,15.60
2017,07,16,04,36,15.60
2017,07,16,04,37,15.50
2017,07,16,04,38,15.50
2017,07,16,04,39,15.50
2017,07,16,04,40,15.40
2017,07,16,04,41,15.40
2017,07,16,04,42,15.40
2017,07,16,04,43,15.40
2017,07,16,04,44,15.30
2017,07,16,04,45,15.30
2017,07,16,04,46,15.30
2017,07,16,04,47,15.30
2017,07,16,04,48,15.30
2017,07,16,04,49,15.20
2017,07,16,04,50,15.20
2017,07,16,04,51,15.20
2017,07,16,04,52,15.20
2017,07,16,04,53,15.20
2017,07,16,04,54,15.10
2017,07,16,04,55,15.10
2017,07,16,04,56,15.10
2017,07,16,04,57,15.10
2017,07,16,04,58,15.10
2017,07,16,04,59,15.10
2017,07,16,05,00,15.10
2017,07,16,05,01,15.10
2017,07,16,05,02,15.10
2017,07,16,05,03,15.10
2017,07,16,05,04,15.10
2017,07,16,05,05,15.10
2017,07,16,05,06,15.20
2017,07,16,05,07,15.20
2017,07,16,05,08,15.30
2017,07,16,05,09,15.30
2017,07,16,05,10,15.30
2017,07,16,05,11,15.30
2017,07,16,05,12,15.40
2017,07,16,05,13,15.40
2017,07,16,05,14,15.40
2017,07,16,05,15,15.40
2017,07,16,05,16,15.40
2017,07,16,05,17,15.40
2017,07,16,05,18,15.50
2017,07,16,05,19,15.50
2017,07,16,05,20,15.50
2017,07,16,05,21,15.50
2017,07,16,05,22,15.50
2017,07,16,05,23,15.50
2017,07,16,05,24,15.60
2017,07,16,05,25,15.60
2017,07,16,05,26,15.60
2017,07,16,05,27,15.60
2017,07,16,05,28,15.60
2017,07,16,05,29,15.60
2017,07,16,05,30,15.60
2017,07,16,05,31,15.60
2017,07,16,05,32,15.60
2017,07,16,05,33,15.60
2017,07,16,05,34,15.60
2017,07,16,05,35,15.60
2017,07,16,05,36,15.50
2017,07,16,05,37,15.50
2017,07,16,05,38,15.50
2017,07,16,05,39,15.50
2017,07,16,05,40,15.40
2017,07,16,05,41,15.40
2017,07,16,05,42,15.40
2017,07,16,05,43,15.40
2017,07,16,05,44,15.40
2017,07,16,05,45,15.30
2017,07,16,05,46,15.30
2017,07,16,05,47,15.20
2017,07,16,05,48,15.10
2017,07,16,05,49,15.10
2017,07,16,05,50,15.00
2017,07,16,05,51,15.00
2017,07,16,05,52,14.90
2017,07,16,05,53,14.90
2017,07,16,05,54,14.80
2017,07,16,05,55,14.80
2017,07,16,05,56,14.70
2017,07,16,05,57,14.70
2017,07,16,05,58,14.70
2017,07,16,05,59,14.60
2017,07,16,06,00,14.60
2017,07,16,06,01,14.60
2017,07,16,06,02,14.50
2017,07,16,06,03,14.50
2017,07,16,06,04,14.50
2017,07,16,06,05,14.50
2017,07,16,06,06,14.50
2017,07,16,06,07,14.50
2017,07,16,06,08,14.50
2017,07,16,06,09,14.50
2017,07,16,06,10,14.50
2017,07,16,06,11,14.50
2017,07,16,06,12,14.50
2017,07,16,06,13,14.50
2017,07,16,06,14,14.50
2017,07,16,06,15,14.50
2017,07,16,06,16,14.50
2017,07,16,06,17,14.50
2017,07,16,06,18,14.50
2017,07,16,06,19,14.50
2017,07,16,06,20,14.60
2017,07,16,06,21,14.60
2017,07,16,06,22,14.60
2017,07,16,06,23,14.60
2017,07,16,06,24,14.70
2017,07,16,06,25,14.70
2017,07,16,06,26,14.70
2017,07,16,06,27,14.70
2017,07,16,06,28,14.80
2017,07,16,06,29,14.80
2017,07,16,06,30,14.80
2017,07,16,06,31,14.70
2017,07,16,06,32,14.70
2017,07,16,06,33,14.60
2017,07,16,06,34,14.60
2017,07,16,06,35,14.50
2017,07,16,06,36,14.50
2017,07,16,06,37,14.40
2017,07,16,06,38,14.40
2017,07,16,06,39,14.30
2017,07,16,06,40,14.30
2017,07,16,06,41,14.30
2017,07,16,06,42,14.20
2017,07,16,06,43,14.20
2017,07,16,06,44,14.20
2017,07,16,06,45,14.20
2017,07,16,06,46,14.20
2017,07,16,06,47,14.20
2017,07,16,06,48,14.30
2017,07,16,06,49,14.30
2017,07,16,06,50,14.30
2017,07,16,06,51,14.30
2017,07,16,06,52,14.40
2017,07,16,06,53,14.40
2017,07,16,06,54,14.50
2017,07,16,06,55,14.50
2017,07,16,06,56,14.50
2017,07,16,06,57,14.60
2017,07,16,06,58,14.60
2017,07,16,06,59,14.60
2017,07,16,07,00,14.60
2017,07,16,07,01,14.60
2017,07,16,07,02,14.60
2017,07,16,07,03,14.60
2017,07,16,07,04,14.60
2017,07,16,07,05,14.60
2017,07,16,07,06,14.70
2017,07,16,07,07,14.70
2017,07,16,07,08,14.70
2017,07,16,07,09,14.70
2017,07,16,07,10,14.70
2017,07,16,07,11,14.80
2017,07,16,07,12,14.80
2017,07,16,07,13,14.80
2017,07,16,07,14,14.80
2017,07,16,07,15,14.90
2017,07,16,07,16,14.90
2017,07,16,07,17,14.90
2017,07,16,07,18,14.90
2017,07,16,07,19,14.90
2017,07,16,07,20,14.90
2017,07,16,07,21,15.00
2017,07,16,07,22,15.00
2017,07,16,07,23,15.10
2017,07,16,07,24,15.10
2017,07,16,07,25,15.20
2017,07,16,07,26,15.20
2017,07,16,07,27,15.30
2017,07,16,07,28,15.30
2017,07,16,07,29,15.30
2017,07,16,07,30,15.40
2017,07,16,07,31,15.40
2017,07,16,07,32,15.50
2017,07,16,07,33,15.50
2017,07,16,07,34,15.50
2017,07,16,07,35,15.60
2017,07,16,07,36,15.60
2017,07,16,07,37,15.70
2017,07,16,07,38,15.70
2017,07,16,07,39,15.70
2017,07,16,07,40,15.70
2017,07,16,07,41,15.80
2017,07,16,07,42,15.80
2017,07,16,07,43,15.80
2017,07,16,07,44,15.90
2017,07,16,07,45,15.90
2017,07,16,07,46,16.00
2017,07,16,07,47,16.00
2017,07,16,07,48,16.10
2017,07,16,07,49,16.10
2017,07,16,07,50,16.10
2017,07,16,07,51,16.10
2017,07,16,07,52,16.20
2017,07,16,07,53,16.20
2017,07,16,07,54,16.30
2017,07,16,07,55,16.30
2017,07,16,07,56,16.30
2017,07,16,07,57,16.40
2017,07,16,07,58,16.40
2017,07,16,07,59,16.50
2017,07,16,08,00,16.60
2017,07,16,08,01,16.60
2017,07,16,08,02,16.70
2017,07,16,08,03,16.70
2017,07,16,08,04,16.80
2017,07,16,08,05,16.90
2017,07,16,08,06,16.90
2017,07,16,08,07,17.00
2017,07,16,08,08,17.00
2017,07,16,08,09,17.10
2017,07,16,08,10,17.10
2017,07,16,08,11,17.20
2017,07,16,08,12,17.30
2017,07,16,08,13,17.30
2017,07,16,08,14,17.40
2017,07,16,08,15,17.40
2017,07,16,08,16,17.50
2017,07,16,08,17,17.50
2017,07,16,08,18,17.50
2017,07,16,08,19,17.60
2017,07,16,08,20,17.60
2017,07,16,08,21,17.60
2017,07,16,08,22,17.70
2017,07,16,08,23,17.70
2017,07,16,08,24,17.70
2017,07,16,08,25,17.70
2017,07,16,08,26,17.70
2017,07,16,08,27,17.70
2017,07,16,08,28,17.70
2017,07,16,08,29,17.70
2017,07,16,08,30,17.70
2017,07,16,08,31,17.70
2017,07,16,08,32,17.70
2017,07,16,08,33,17.70
2017,07,16,08,34,17.70
2017,07,16,08,35,17.70
2017,07,16,08,36,17.70
2017,07,16,08,37,17.70
2017,07,16,08,38,17.70
2017,07,16,08,39,17.70
2017,07,16,08,40,17.70
2017,07,16,08,41,17.70
2017,07,16,08,42,17.60
2017,07,16,08,43,17.60
2017,07,16,08,44,17.60
2017,07,16,08,45,17.60
2017,07,16,08,46,17.60
2017,07,16,08,47,17.60
2017,07,16,08,48,17.60
2017,07,16,08,49,17.60
2017,07,16,08,50,17.60
2017,07,16,08,51,17.70
2017,07,16,08,52,17.70
2017,07,16,08,53,17.70
2017,07,16,08,54,17.80
2017,07,16,08,55,17.80
2017,07,16,08,56,17.90
2017,07,16,08,57,17.90
2017,07,16,08,58,17.90
2017,07,16,08,59,17.80
2017,07,16,09,00,17.80
2017,07,16,09,01,17.70
2017,07,16,09,02,17.70
2017,07,16,09,03,17.70
2017,07,16,09,04,17.70
2017,07,16,09,05,17.60
2017,07,16,09,06,17.60
2017,07,16,09,07,17.60
2017,07,16,09,08,17.60
2017,07,16,09,09,17.60
2017,07,16,09,10,17.60
2017,07,16,09,11,17.70
2017,07,16,09,12,17.70
2017,07,16,09,13,17.60
2017,07,16,09,14,17.50
2017,07,16,09,15,17.50
2017,07,16,09,16,17.40
2017,07,16,09,17,17.40
2017,07,16,09,18,17.40
2017,07,16,09,19,17.50
2017,07,16,09,20,17.50
2017,07,16,09,21,17.50
2017,07,16,09,22,17.60
2017,07,16,09,23,17.70
2017,07,16,09,24,17.70
2017,07,16,09,25,17.70
2017,07,16,09,26,17.70
2017,07,16,09,27,17.60
2017,07,16,09,28,17.60
2017,07,16,09,29,17.60
2017,07,16,09,30,17.70
2017,07,16,09,31,17.60
2017,07,16,09,32,17.60
2017,07,16,09,33,17.60
2017,07,16,09,34,17.60
2017,07,16,09,35,17.60
2017,07,16,09,36,17.60
2017,07,16,09,37,17.60
2017,07,16,09,38,17.60
2017,07,16,09,39,17.60
2017,07,16,09,40,17.50
2017,07,16,09,41,17.60
2017,07,16,09,42,17.60
2017,07,16,09,43,17.60
2017,07,16,09,44,17.60
2017,07,16,09,45,17.60
2017,07,16,09,46,17.50
2017,07,16,09,47,17.50
2017,07,16,09,48,17.60
2017,07,16,09,49,17.60
2017,07,16,09,50,17.60
2017,07,16,09,51,17.70
2017,07,16,09,52,17.60
2017,07,16,09,53,17.50
2017,07,16,09,54,17.50
2017,07,16,09,55,17.60
2017,07,16,09,56,17.60
2017,07,16,09,57,17.70
2017,07,16,09,58,17.70
2017,07,16,09,59,17.70
2017,07,16,10,00,17.70
2017,07,16,10,01,17.60
2017,07,16,10,02,17.70
2017,07,16,10,03,17.70
2017,07,16,10,04,17.70
2017,07,16,10,05,17.70
2017,07,16,10,06,17.70
2017,07,16,10,07,17.70
2017,07,16,10,08,17.70
2017,07,16,10,09,17.70
2017,07,16,10,10,17.70
2017,07,16,10,11,17.60
2017,07,16,10,12,17.60
2017,07,16,10,13,17.60
2017,07,16,10,14,17.70
2017,07,16,10,15,17.70
2017,07,16,10,16,17.70
2017,07,16,10,17,17.70
2017,07,16,10,18,17.70
2017,07,16,10,19,17.70
2017,07,16,10,20,17.70
2017,07,16,10,21,17.80
2017,07,16,10,22,17.80
2017,07,16,10,23,17.90
2017,07,16,10,24,18.00
2017,07,16,10,25,18.00
2017,07,16,10,26,17.90
2017,07,16,10,27,17.90
2017,07,16,10,28,17.90
2017,07,16,10,29,17.90
2017,07,16,10,30,18.00
2017,07,16,10,31,18.00
2017,07,16,10,32,18.00
2017,07,16,10,33,18.00
2017,07,16,10,34,18.10
2017,07,16,10,35,18.10
2017,07,16,10,36,18.10
2017,07,16,10,37,18.10
2017,07,16,10,38,18.10
2017,07,16,10,39,18.10
2017,07,16,10,40,18.20
2017,07,16,10,41,18.20
2017,07,16,10,42,18.20
2017,07,16,10,43,18.20
2017,07,16,10,44,18.20
2017,07,16,10,45,18.30
2017,07,16,10,46,18.30
2017,07,16,10,47,18.30
2017,07,16,10,48,18.40
2017,07,16,10,49,18.40
2017,07,16,10,50,18.30
2017,07,16,10,51,18.30
2017,07,16,10,52,18.10
2017,07,16,10,53,18.00
2017,07,16,10,54,17.90
2017,07,16,10,55,17.90
2017,07,16,10,56,17.90
2017,07,16,10,57,17.90
2017,07,16,10,58,17.90
2017,07,16,10,59,17.90
2017,07,16,11,00,18.00
2017,07,16,11,01,18.00
2017,07,16,11,02,18.10
2017,07,16,11,03,18.20
2017,07,16,11,04,18.20
2017,07,16,11,05,18.10
2017,07,16,11,06,18.10
2017,07,16,11,07,18.10
2017,07,16,11,08,18.10
2017,07,16,11,09,18.20
2017,07,16,11,10,18.30
2017,07,16,11,11,18.30
2017,07,16,11,12,18.40
2017,07,16,11,13,18.40
2017,07,16,11,14,18.40
2017,07,16,11,15,18.50
2017,07,16,11,16,18.50
2017,07,16,11,17,18.50
2017,07,16,11,18,18.60
2017,07,16,11,19,18.70
2017,07,16,11,20,18.70
2017,07,16,11,21,18.70
2017,07,16,11,22,18.60
2017,07,16,11,23,18.60
2017,07,16,11,24,18.60
2017,07,16,11,25,18.50
2017,07,16,11,26,18.60
2017,07,16,11,27,18.60
2017,07,16,11,28,18.60
2017,07,16,11,29,18.60
2017,07,16,11,30,18.70
2017,07,16,11,31,18.70
2017,07,16,11,32,18.70
2017,07,16,11,33,18.70
2017,07,16,11,34,18.70
2017,07,16,11,35,18.70
2017,07,16,11,36,18.60
2017,07,16,11,37,18.60
2017,07,16,11,38,18.70
2017,07,16,11,39,18.70
2017,07,16,11,40,18.80
2017,07,16,11,41,18.80
2017,07,16,11,42,18.80
2017,07,16,11,43,18.80
2017,07,16,11,44,18.80
2017,07,16,11,45,18.80
2017,07,16,11,46,18.90
2017,07,16,11,47,18.90
2017,07,16,11,48,18.90
2017,07,16,11,49,18.90
2017,07,16,11,50,18.90
2017,07,16,11,51,18.90
2017,07,16,11,52,18.90
2017,07,16,11,53,18.90
2017,07,16,11,54,19.00
2017,07,16,11,55,19.00
2017,07,16,11,56,19.10
2017,07,16,11,57,19.10
2017,07,16,11,58,19.10
2017,07,16,11,59,19.20
2017,07,16,12,00,19.20
2017,07,16,12,01,19.20
2017,07,16,12,02,19.20
2017,07,16,12,03,19.20
2017,07,16,12,04,19.20
2017,07,16,12,05,19.20
2017,07,16,12,06,19.20
2017,07,16,12,07,19.20
2017,07,16,12,08,19.20
2017,07,16,12,09,19.30
2017,07,16,12,10,19.30
2017,07,16,12,11,19.40
2017,07,16,12,12,19.40
2017,07,16,12,13,19.50
2017,07,16,12,14,19.60
2017,07,16,12,15,19.70
2017,07,16,12,16,19.80
2017,07,16,12,17,19.90
2017,07,16,12,18,19.90
2017,07,16,12,19,19.90
2017,07,16,12,20,19.90
2017,07,16,12,21,19.90
2017,07,16,12,22,19.90
2017,07,16,12,23,19.90
2017,07,16,12,24,19.90
2017,07,16,12,25,19.90
2017,07,16,12,26,19.80
2017,07,16,12,27,19.80
2017,07,16,12,28,19.70
2017,07,16,12,29,19.70
2017,07,16,12,30,19.60
2017,07,16,12,31,19.60
2017,07,16,12,32,19.60
2017,07,16,12,33,19.70
2017,07,16,12,34,19.70
2017,07,16,12,35,19.70
2017,07,16,12,36,19.80
2017,07,16,12,37,19.90
2017,07,16,12,38,20.00
2017,07,16,12,39,20.10
2017,07,16,12,40,20.20
2017,07,16,12,41,20.30
2017,07,16,12,42,20.40
2017,07,16,12,43,20.50
2017,07,16,12,44,20.60
2017,07,16,12,45,20.70
2017,07,16,12,46,20.70
2017,07,16,12,47,20.70
2017,07,16,12,48,20.70
2017,07,16,12,49,20.70
2017,07,16,12,50,20.70
2017,07,16,12,51,20.60
2017,07,16,12,52,20.60
2017,07,16,12,53,20.60
2017,07,16,12,54,20.70
2017,07,16,12,55,20.70
2017,07,16,12,56,20.80
2017,07,16,12,57,20.80
2017,07,16,12,58,20.80
2017,07,16,12,59,20.90
2017,07,16,13,00,20.90
2017,07,16,13,01,20.90
2017,07,16,13,02,20.90
2017,07,16,13,03,20.90
2017,07,16,13,04,20.80
2017,07,16,13,05,20.80
2017,07,16,13,06,20.80
2017,07,16,13,07,20.80
2017,07,16,13,08,20.90
2017,07,16,13,09,21.00
2017,07,16,13,10,21.10
2017,07,16,13,11,21.10
2017,07,16,13,12,21.20
2017,07,16,13,13,21.20
2017,07,16,13,14,21.10
2017,07,16,13,15,21.10
2017,07,16,13,16,21.10
2017,07,16,13,17,21.10
2017,07,16,13,18,21.20
2017,07,16,13,19,21.20
2017,07,16,13,20,21.30
2017,07,16,13,21,21.30
2017,07,16,13,22,21.30
2017,07,16,13,23,21.10
2017,07,16,13,24,20.90
2017,07,16,13,25,20.80
2017,07,16,13,26,20.80
2017,07,16,13,27,20.80
2017,07,16,13,28,20.80
2017,07,16,13,29,20.80
2017,07,16,13,30,20.90
2017,07,16,13,31,20.90
2017,07,16,13,32,20.90
2017,07,16,13,33,20.90
2017,07,16,13,34,20.90
2017,07,16,13,35,20.90
2017,07,16,13,36,20.80
2017,07,16,13,37,20.80
2017,07,16,13,38,20.80
2017,07,16,13,39,20.70
2017,07,16,13,40,20.70
2017,07,16,13,41,20.60
2017,07,16,13,42,20.60
2017,07,16,13,43,20.70
2017,07,16,13,44,20.80
2017,07,16,13,45,20.80
2017,07,16,13,46,20.80
2017,07,16,13,47,20.90
2017,07,16,13,48,21.00
2017,07,16,13,49,21.10
2017,07,16,13,50,21.10
2017,07,16,13,51,21.00
2017,07,16,13,52,20.90
2017,07,16,13,53,20.90
2017,07,16,13,54,20.90
2017,07,16,13,55,21.00
2017,07,16,13,56,21.10
2017,07,16,13,57,21.20
2017,07,16,13,58,21.20
2017,07,16,13,59,21.20
2017,07,16,14,00,21.10
2017,07,16,14,01,20.90
2017,07,16,14,02,20.80
2017,07,16,14,03,20.70
2017,07,16,14,04,20.70
2017,07,16,14,05,20.80
2017,07,16,14,06,20.90
2017,07,16,14,07,21.00
2017,07,16,14,08,21.10
2017,07,16,14,09,21.20
2017,07,16,14,10,21.30
2017,07,16,14,11,21.30
2017,07,16,14,12,21.20
2017,07,16,14,13,21.20
2017,07,16,14,14,21.20
2017,07,16,14,15,21.20
2017,07,16,14,16,21.30
2017,07,16,14,17,21.30
2017,07,16,14,18,21.40
2017,07,16,14,19,21.40
2017,07,16,14,20,21.40
2017,07,16,14,21,21.40
2017,07,16,14,22,21.30
2017,07,16,14,23,21.30
2017,07,16,14,24,21.30
2017,07,16,14,25,21.20
2017,07,16,14,26,21.30
2017,07,16,14,27,21.30
2017,07,16,14,28,21.30
2017,07,16,14,29,21.30
2017,07,16,14,30,21.30
2017,07,16,14,31,21.30
2017,07,16,14,32,21.40
2017,07,16,14,33,21.40
2017,07,16,14,34,21.40
2017,07,16,14,35,21.40
2017,07,16,14,36,21.40
2017,07,16,14,37,21.40
2017,07,16,14,38,21.50
2017,07,16,14,39,21.60
2017,07,16,14,40,21.60
2017,07,16,14,41,21.70
2017,07,16,14,42,21.70
2017,07,16,14,43,21.70
2017,07,16,14,44,21.80
2017,07,16,14,45,21.70
2017,07,16,14,46,21.70
2017,07,16,14,47,21.70
2017,07,16,14,48,21.70
2017,07,16,14,49,21.70
2017,07,16,14,50,21.70
2017,07,16,14,51,21.80
2017,07,16,14,52,21.80
2017,07,16,14,53,21.70
2017,07,16,14,54,21.70
2017,07,16,14,55,21.80
2017,07,16,14,56,21.80
2017,07,16,14,57,21.70
2017,07,16,14,58,21.70
2017,07,16,14,59,21.60
2017,07,16,15,00,21.60
2017,07,16,15,01,21.50
2017,07,16,15,02,21.50
2017,07,16,15,03,21.40
2017,07,16,15,04,21.30
2017,07,16,15,05,21.20
2017,07,16,15,06,21.00
2017,07,16,15,07,20.90
2017,07,16,15,08,20.90
2017,07,16,15,09,21.00
2017,07,16,15,10,21.10
2017,07,16,15,11,21.20
2017,07,16,15,12,21.30
2017,07,16,15,13,21.50
2017,07,16,15,14,21.60
2017,07,16,15,15,21.80
2017,07,16,15,16,21.90
2017,07,16,15,17,21.90
2017,07,16,15,18,21.90
2017,07,16,15,19,21.90
2017,07,16,15,20,21.90
2017,07,16,15,21,21.90
2017,07,16,15,22,21.90
2017,07,16,15,23,22.00
2017,07,16,15,24,22.10
2017,07,16,15,25,22.10
2017,07,16,15,26,22.10
2017,07,16,15,27,22.00
2017,07,16,15,28,21.80
2017,07,16,15,29,21.80
2017,07,16,15,30,21.70
2017,07,16,15,31,21.60
2017,07,16,15,32,21.50
2017,07,16,15,33,21.50
2017,07,16,15,34,21.40
2017,07,16,15,35,21.40
2017,07,16,15,36,21.30
2017,07,16,15,37,21.30
2017,07,16,15,38,21.40
2017,07,16,15,39,21.40
2017,07,16,15,40,21.40
2017,07,16,15,41,21.40
2017,07,16,15,42,21.30
2017,07,16,15,43,21.30
2017,07,16,15,44,21.40
2017,07,16,15,45,21.40
2017,07,16,15,46,21.40
2017,07,16,15,47,21.40
2017,07,16,15,48,21.40
2017,07,16,15,49,21.40
2017,07,16,15,50,21.30
2017,07,16,15,51,21.30
2017,07,16,15,52,21.30
2017,07,16,15,53,21.30
2017,07,16,15,54,21.20
2017,07,16,15,55,21.10
2017,07,16,15,56,21.10
2017,07,16,15,57,21.10
2017,07,16,15,58,21.00
2017,07,16,15,59,21.00
2017,07,16,16,00,21.10
2017,07,16,16,01,21.10
2017,07,16,16,02,21.20
2017,07,16,16,03,21.20
2017,07,16,16,04,21.30
2017,07,16,16,05,21.40
2017,07,16,16,06,21.50
2017,07,16,16,07,21.50
2017,07,16,16,08,21.40
2017,07,16,16,09,21.40
2017,07,16,16,10,21.30
2017,07,16,16,11,21.30
2017,07,16,16,12,21.30
2017,07,16,16,13,21.30
2017,07,16,16,14,21.30
2017,07,16,16,15,21.40
2017,07,16,16,16,21.40
2017,07,16,16,17,21.50
2017,07,16,16,18,21.50
2017,07,16,16,19,21.60
2017,07,16,16,20,21.60
2017,07,16,16,21,21.70
2017,07,16,16,22,21.60
2017,07,16,16,23,21.70
2017,07,16,16,24,21.60
2017,07,16,16,25,21.60
2017,07,16,16,26,21.60
2017,07,16,16,27,21.60
2017,07,16,16,28,21.60
2017,07,16,16,29,21.70
2017,07,16,16,30,21.70
2017,07,16,16,31,21.60
2017,07,16,16,32,21.60
2017,07,16,16,33,21.50
2017,07,16,16,34,21.50
2017,07,16,16,35,21.50
2017,07,16,16,36,21.40
2017,07,16,16,37,21.40
2017,07,16,16,38,21.40
2017,07,16,16,39,21.40
2017,07,16,16,40,21.40
2017,07,16,16,41,21.40
2017,07,16,16,42,21.40
2017,07,16,16,43,21.40
2017,07,16,16,44,21.30
2017,07,16,16,45,21.20
2017,07,16,16,46,21.10
2017,07,16,16,47,21.10
2017,07,16,16,48,21.00
2017,07,16,16,49,20.90
2017,07,16,16,50,20.90
2017,07,16,16,51,20.90
2017,07,16,16,52,20.90
2017,07,16,16,53,20.90
2017,07,16,16,54,20.90
2017,07,16,16,55,20.80
2017,07,16,16,56,20.80
2017,07,16,16,57,20.80
2017,07,16,16,58,20.70
2017,07,16,16,59,20.70
2017,07,16,17,00,20.70
2017,07,16,17,01,20.80
2017,07,16,17,02,20.80
2017,07,16,17,03,20.80
2017,07,16,17,04,20.90
2017,07,16,17,05,20.90
2017,07,16,17,06,20.90
2017,07,16,17,07,21.00
2017,07,16,17,08,21.10
2017,07,16,17,09,21.10
2017,07,16,17,10,21.10
2017,07,16,17,11,21.10
2017,07,16,17,12,21.00
2017,07,16,17,13,21.00
2017,07,16,17,14,21.00
2017,07,16,17,15,21.00
2017,07,16,17,16,21.00
2017,07,16,17,17,21.00
2017,07,16,17,18,21.00
2017,07,16,17,19,21.00